UAE52M OMDB-EDDF

Flight info

Callsign UAE52M
Flight time N/A
Altitude 35000
Route ANVIX R401 DATBU/N0485F340 G652 TOKRA DCT ALROK DCT BOSOB DCT ITRUX Y511 PMA/N0482F360 Z712 WEJ L677 CVO L617 TANSA DCT KOR UL613 XANIS DCT DIMIS DCT UNDER DCT PETAK DCT GLOMY DCT ELTIB DCT TUPUS/N0466F380 DCT GORPA DCT SIMBA DCT AKINI T161 DEBHI DEBHI1A
Aircraft A388/J-SADE2E3FGHIJ3J4J5M1RWXY/LB1D1

Departure

Time 2026-04-24 10:07
Airport Dubai International Airport (OMDB)

Arrival

Time N/A
Airport Frankfurt Main Airport (EDDF)
Time Latitude Longitude Altitude Speed Heading
2026-04-24 09:49 25.24401 55.37296 26 ft 3 kts 211°
2026-04-24 09:50 25.24424 55.37312 26 ft 4 kts 211°
2026-04-24 09:50 25.24447 55.37327 24 ft 3 kts 211°
2026-04-24 09:50 25.24463 55.37341 26 ft 4 kts 254°
2026-04-24 09:50 25.24460 55.37367 24 ft 4 kts 297°
2026-04-24 09:51 25.24450 55.37387 25 ft 0 kts 302°
2026-04-24 09:57 25.24466 55.37373 27 ft 3 kts
2026-04-24 09:57 25.24496 55.37436 27 ft 22 kts 89°
2026-04-24 09:58 25.24435 55.37591 27 ft 22 kts 114°
2026-04-24 09:58 25.24364 55.37734 28 ft 17 kts 120°
2026-04-24 09:58 25.24319 55.37820 28 ft 13 kts 121°
2026-04-24 09:58 25.24272 55.37905 28 ft 12 kts 121°
2026-04-24 09:59 25.24238 55.37968 28 ft 0 kts 122°
2026-04-24 09:59 25.24227 55.37987 28 ft 6 kts 121°
2026-04-24 09:59 25.24211 55.38030 28 ft 6 kts 98°
2026-04-24 09:59 25.24212 55.38053 29 ft 1 kts 50°
2026-04-24 10:00 25.24217 55.38058 29 ft 0 kts 31°
2026-04-24 10:02 25.24251 55.38080 43 ft 12 kts 31°
2026-04-24 10:03 25.24311 55.38119 36 ft 9 kts 31°
2026-04-24 10:03 25.24419 55.38191 33 ft 24 kts 31°
2026-04-24 10:03 25.24516 55.38256 28 ft 0 kts 32°
2026-04-24 10:03 25.24533 55.38268 28 ft 7 kts 32°
2026-04-24 10:04 25.24583 55.38303 27 ft 9 kts 26°
2026-04-24 10:04 25.24638 55.38301 27 ft 8 kts 332°
2026-04-24 10:04 25.24676 55.38258 28 ft 11 kts 303°
2026-04-24 10:04 25.24699 55.38218 29 ft 0 kts 301°
2026-04-24 10:06 25.24875 55.37902 35 ft 80 kts 302°
2026-04-24 10:06 25.25274 55.37190 36 ft 134 kts 301°
2026-04-24 10:07 25.25832 55.36195 55 ft 164 kts 303°
2026-04-24 10:07 25.26389 55.35134 556 ft 158 kts 304°
2026-04-24 10:07 25.26947 55.34029 865 ft 169 kts 304°
2026-04-24 10:07 25.27557 55.32900 1262 ft 172 kts 306°
2026-04-24 10:08 25.28232 55.31762 1645 ft 180 kts 307°
2026-04-24 10:08 25.28952 55.30587 1898 ft 195 kts 307°
2026-04-24 10:08 25.29491 55.29169 2172 ft 210 kts 278°
2026-04-24 10:08 25.29267 55.27562 2447 ft 217 kts 250°
2026-04-24 10:09 25.28573 55.26074 2647 ft 222 kts 243°
2026-04-24 10:09 25.27770 55.24582 2822 ft 227 kts 240°
2026-04-24 10:09 25.26899 55.23025 2977 ft 248 kts 240°
2026-04-24 10:09 25.26016 55.21350 3539 ft 247 kts 244°
2026-04-24 10:10 25.25286 55.19699 4371 ft 242 kts 245°
2026-04-24 10:10 25.24572 55.18007 5030 ft 242 kts 240°
2026-04-24 10:10 25.23527 55.16638 5950 ft 232 kts 213°
2026-04-24 10:10 25.22016 55.16015 6524 ft 239 kts 185°
2026-04-24 10:11 25.20326 55.16176 6943 ft 253 kts 167°
2026-04-24 10:11 25.18737 55.17096 7441 ft 264 kts 141°
2026-04-24 10:11 25.17534 55.18673 7919 ft 276 kts 131°
2026-04-24 10:11 25.16045 55.20066 8143 ft 286 kts 157°
2026-04-24 10:12 25.14130 55.20567 8771 ft 283 kts 183°
2026-04-24 10:12 25.12236 55.20115 9393 ft 282 kts 207°
2026-04-24 10:12 25.10673 55.18813 9893 ft 283 kts 227°
2026-04-24 10:12 25.09381 55.17162 9989 ft 285 kts 230°
2026-04-24 10:13 25.08034 55.15552 9998 ft 285 kts 225°
2026-04-24 10:13 25.06571 55.14083 9996 ft 285 kts 220°
2026-04-24 10:13 25.05009 55.12712 10059 ft 288 kts 218°
2026-04-24 10:13 25.03361 55.11367 10149 ft 303 kts 217°
2026-04-24 10:14 25.01625 55.09990 10303 ft 319 kts 216°
2026-04-24 10:14 24.99775 55.08532 10553 ft 332 kts 216°
2026-04-24 10:14 24.97878 55.07039 11108 ft 335 kts 216°
2026-04-24 10:14 24.96078 55.05392 11640 ft 338 kts 229°
2026-04-24 10:15 24.94887 55.03164 12203 ft 340 kts 249°
2026-04-24 10:15 24.94119 55.00675 12703 ft 345 kts 251°
2026-04-24 10:15 24.93393 54.98180 13270 ft 347 kts 251°
2026-04-24 10:15 24.92657 54.95630 13805 ft 349 kts 251°
2026-04-24 10:16 24.91912 54.93065 14315 ft 352 kts 251°
2026-04-24 10:16 24.91159 54.90497 14853 ft 353 kts 252°
2026-04-24 10:16 24.90400 54.87921 15428 ft 354 kts 252°
2026-04-24 10:16 24.89650 54.85380 15963 ft 356 kts 252°
2026-04-24 10:17 24.88878 54.82768 16469 ft 358 kts 252°
2026-04-24 10:17 24.88103 54.80151 16986 ft 360 kts 253°
2026-04-24 10:17 24.87325 54.77525 17494 ft 362 kts 253°
2026-04-24 10:17 24.86542 54.74882 18011 ft 363 kts 253°
2026-04-24 10:18 24.85752 54.72220 18438 ft 366 kts 253°
2026-04-24 10:18 24.84958 54.69543 18828 ft 369 kts 253°
2026-04-24 10:18 24.84159 54.66852 19219 ft 371 kts 253°
2026-04-24 10:18 24.83352 54.64136 19611 ft 374 kts 252°
2026-04-24 10:19 24.82541 54.61411 19998 ft 376 kts 252°
2026-04-24 10:19 24.81733 54.58698 20379 ft 379 kts 252°
2026-04-24 10:19 24.80911 54.55944 20748 ft 381 kts 252°
2026-04-24 10:19 24.80081 54.53164 21134 ft 383 kts 252°
2026-04-24 10:20 24.79242 54.50356 21495 ft 386 kts 252°
2026-04-24 10:20 24.78402 54.47547 21870 ft 388 kts 252°
2026-04-24 10:20 24.77554 54.44712 22254 ft 390 kts 252°
2026-04-24 10:20 24.76712 54.41901 22617 ft 392 kts 252°
2026-04-24 10:21 24.75853 54.39033 22968 ft 395 kts 252°
2026-04-24 10:21 24.74989 54.36152 23343 ft 397 kts 251°
2026-04-24 10:21 24.74120 54.33256 23656 ft 399 kts 252°
2026-04-24 10:21 24.73245 54.30346 24005 ft 400 kts 252°
2026-04-24 10:22 24.72370 54.27435 24332 ft 401 kts 252°
2026-04-24 10:22 24.71494 54.24521 24668 ft 402 kts 252°
2026-04-24 10:22 24.70614 54.21597 25002 ft 404 kts 252°
2026-04-24 10:22 24.69740 54.18696 25333 ft 405 kts 252°
2026-04-24 10:23 24.68850 54.15745 25671 ft 406 kts 252°
2026-04-24 10:23 24.67956 54.12784 26022 ft 408 kts 252°
2026-04-24 10:23 24.67059 54.09813 26395 ft 409 kts 252°
2026-04-24 10:23 24.66170 54.06872 26783 ft 411 kts 252°
2026-04-24 10:24 24.65265 54.03879 27158 ft 413 kts 252°
2026-04-24 10:24 24.64358 54.00882 27561 ft 414 kts 253°
2026-04-24 10:24 24.63443 53.97862 27969 ft 416 kts 253°
2026-04-24 10:24 24.62524 53.94831 28390 ft 418 kts 253°
2026-04-24 10:25 24.61600 53.91785 28809 ft 420 kts 253°
2026-04-24 10:25 24.60670 53.88725 29220 ft 422 kts 253°
2026-04-24 10:25 24.59748 53.85690 29639 ft 424 kts 253°
2026-04-24 10:25 24.58812 53.82613 30050 ft 426 kts 253°
2026-04-24 10:26 24.57865 53.79502 30420 ft 428 kts 253°
2026-04-24 10:26 24.56919 53.76399 30791 ft 430 kts 253°
2026-04-24 10:26 24.55967 53.73274 31166 ft 431 kts 253°
2026-04-24 10:26 24.55022 53.70180 31524 ft 433 kts 253°
2026-04-24 10:27 24.54060 53.67030 31868 ft 435 kts 253°
2026-04-24 10:27 24.53093 53.63866 32206 ft 437 kts 253°
2026-04-24 10:27 24.52140 53.60751 32550 ft 439 kts 253°
2026-04-24 10:27 24.51143 53.57495 32902 ft 441 kts 253°
2026-04-24 10:28 24.50173 53.54331 33213 ft 444 kts 253°
2026-04-24 10:28 24.49171 53.51064 33548 ft 446 kts 253°
2026-04-24 10:28 24.48179 53.47833 33871 ft 448 kts 253°
2026-04-24 10:28 24.47179 53.44578 34188 ft 450 kts 253°
2026-04-24 10:29 24.46176 53.41318 34542 ft 450 kts 253°
2026-04-24 10:29 24.45171 53.38053 34824 ft 453 kts 253°
2026-04-24 10:29 24.44176 53.34823 34875 ft 450 kts 254°
2026-04-24 10:30 24.42162 53.28292 34872 ft 452 kts 253°
2026-04-24 10:30 24.40152 53.21785 34872 ft 452 kts 253°
2026-04-24 10:31 24.38128 53.15247 34875 ft 452 kts 253°
2026-04-24 10:31 24.36099 53.08701 34880 ft 452 kts 253°
2026-04-24 10:32 24.34064 53.02150 34875 ft 452 kts 253°
2026-04-24 10:32 24.32045 52.95661 34882 ft 452 kts 253°
2026-04-24 10:33 24.30356 52.90238 34875 ft 451 kts 253°
2026-04-24 10:33 24.27988 52.82649 34875 ft 451 kts 253°
2026-04-24 10:34 24.26294 52.77231 34880 ft 451 kts 253°
2026-04-24 10:34 24.24255 52.70721 34886 ft 451 kts 253°
2026-04-24 10:35 24.22212 52.64204 34893 ft 451 kts 253°
2026-04-24 10:35 24.20166 52.57692 34899 ft 451 kts 253°
2026-04-24 10:36 24.18133 52.51232 35064 ft 451 kts 253°
2026-04-24 10:36 24.17112 52.47993 35299 ft 449 kts 254°
2026-04-24 10:36 24.16094 52.44768 35540 ft 447 kts 254°
2026-04-24 10:36 24.15082 52.41564 35789 ft 445 kts 254°
2026-04-24 10:37 24.14070 52.38358 35903 ft 443 kts 254°
2026-04-24 10:37 24.12054 52.31981 35900 ft 442 kts 254°
2026-04-24 10:38 24.10037 52.25611 35880 ft 442 kts 254°
2026-04-24 10:38 24.08016 52.19240 35892 ft 442 kts 254°
2026-04-24 10:39 24.06010 52.12926 35895 ft 442 kts 254°
2026-04-24 10:39 24.03988 52.06575 35896 ft 441 kts 254°
2026-04-24 10:40 24.01968 52.00237 35876 ft 440 kts 254°
2026-04-24 10:40 23.99944 51.93900 35879 ft 440 kts 254°
2026-04-24 10:41 23.97931 51.87605 35880 ft 441 kts 254°
2026-04-24 10:41 23.95901 51.81266 35881 ft 441 kts 254°
2026-04-24 10:42 23.93862 51.74913 35885 ft 442 kts 254°
2026-04-24 10:42 23.91821 51.68563 35894 ft 442 kts 254°
2026-04-24 10:43 23.89780 51.62220 35892 ft 442 kts 254°
2026-04-24 10:43 23.87735 51.55877 35903 ft 442 kts 254°
2026-04-24 10:44 23.85701 51.49578 35892 ft 442 kts 254°
2026-04-24 10:44 23.83652 51.43242 35891 ft 441 kts 254°
2026-04-24 10:45 23.81605 51.36921 35885 ft 441 kts 254°
2026-04-24 10:45 23.79555 51.30602 35872 ft 440 kts 254°
2026-04-24 10:46 23.77509 51.24307 35868 ft 440 kts 254°
2026-04-24 10:46 23.75459 51.18006 35871 ft 439 kts 254°
2026-04-24 10:47 23.73409 51.11716 35870 ft 439 kts 253°
2026-04-24 10:47 23.71355 51.05427 35865 ft 439 kts 253°
2026-04-24 10:48 23.69313 50.99179 35867 ft 439 kts 253°
2026-04-24 10:48 23.67253 50.92888 35864 ft 440 kts 253°
2026-04-24 10:49 23.65191 50.86601 35866 ft 440 kts 253°
2026-04-24 10:49 23.63127 50.80317 35868 ft 440 kts 253°
2026-04-24 10:50 23.61060 50.74037 35883 ft 439 kts 253°
2026-04-24 10:50 23.59006 50.67803 35882 ft 439 kts 253°
2026-04-24 10:51 23.56938 50.61536 35879 ft 438 kts 253°
2026-04-24 10:51 23.54873 50.55285 35884 ft 438 kts 253°
2026-04-24 10:52 23.52808 50.49047 35865 ft 437 kts 253°
2026-04-24 10:52 23.50739 50.42808 35869 ft 437 kts 253°
2026-04-24 10:53 23.48674 50.36588 35867 ft 436 kts 253°
2026-04-24 10:53 23.46607 50.30369 35866 ft 436 kts 253°
2026-04-24 10:54 23.44549 50.24188 35865 ft 436 kts 253°
2026-04-24 10:54 23.42477 50.17976 35867 ft 436 kts 253°
2026-04-24 10:55 23.40403 50.11768 35864 ft 436 kts 253°
2026-04-24 10:55 23.38324 50.05552 35880 ft 436 kts 253°
2026-04-24 10:56 23.36256 49.99379 35877 ft 436 kts 253°
2026-04-24 10:56 23.34170 49.93162 35877 ft 436 kts 253°
2026-04-24 10:57 23.32086 49.86958 35864 ft 436 kts 253°
2026-04-24 10:57 23.30010 49.80788 35864 ft 436 kts 253°
2026-04-24 10:58 23.27923 49.74595 35861 ft 436 kts 253°
2026-04-24 10:58 23.25832 49.68401 35862 ft 436 kts 253°
2026-04-24 10:59 23.23742 49.62216 35863 ft 435 kts 253°
2026-04-24 10:59 23.21647 49.56027 35879 ft 435 kts 253°
2026-04-24 11:00 23.19552 49.49847 35876 ft 435 kts 253°
2026-04-24 11:00 23.17466 49.43704 35875 ft 435 kts 253°
2026-04-24 11:01 23.15369 49.37533 35866 ft 435 kts 253°
2026-04-24 11:01 23.13268 49.31363 35866 ft 435 kts 253°
2026-04-24 11:02 23.11164 49.25193 35867 ft 435 kts 253°
2026-04-24 11:02 23.09061 49.19032 35848 ft 435 kts 253°
2026-04-24 11:03 23.06966 49.12907 35850 ft 435 kts 252°
2026-04-24 11:03 23.04852 49.06734 35861 ft 435 kts 252°
2026-04-24 11:04 23.02741 49.00577 35863 ft 435 kts 252°
2026-04-24 11:04 23.00635 48.94445 35867 ft 435 kts 252°
2026-04-24 11:05 22.98513 48.88276 35859 ft 436 kts 252°
2026-04-24 11:05 22.96389 48.82108 35866 ft 436 kts 252°
2026-04-24 11:06 22.94260 48.75936 35862 ft 436 kts 252°
2026-04-24 11:06 22.92138 48.69793 35869 ft 437 kts 252°
2026-04-24 11:07 22.88930 48.60523 35869 ft 437 kts 252°
2026-04-24 11:07 22.86789 48.54346 35865 ft 437 kts 252°
2026-04-24 11:08 22.84642 48.48160 35870 ft 437 kts 252°
2026-04-24 11:08 22.82506 48.42015 35865 ft 437 kts 252°
2026-04-24 11:09 22.80354 48.35836 35867 ft 437 kts 252°
2026-04-24 11:09 22.78207 48.29674 35862 ft 437 kts 252°
2026-04-24 11:10 22.76061 48.23519 35866 ft 437 kts 252°
2026-04-24 11:10 22.74271 48.18391 35859 ft 436 kts 252°
2026-04-24 11:11 22.72121 48.12242 35860 ft 436 kts 252°
2026-04-24 11:11 22.70194 48.06018 35855 ft 433 kts 259°
2026-04-24 11:12 22.69590 47.99558 35857 ft 432 kts 271°
2026-04-24 11:12 22.70080 47.93054 35855 ft 432 kts 274°
2026-04-24 11:13 22.70621 47.86603 35867 ft 432 kts 274°
2026-04-24 11:13 22.71159 47.80099 35866 ft 432 kts 274°
2026-04-24 11:14 22.71696 47.73611 35873 ft 432 kts 274°
2026-04-24 11:14 22.72231 47.67121 35871 ft 432 kts 274°
2026-04-24 11:15 22.72764 47.60630 35876 ft 432 kts 274°
2026-04-24 11:15 22.73293 47.54155 35872 ft 432 kts 274°
2026-04-24 11:16 22.73819 47.47676 35877 ft 431 kts 274°
2026-04-24 11:16 22.74340 47.41234 35874 ft 431 kts 274°
2026-04-24 11:17 22.74860 47.34770 35875 ft 431 kts 274°
2026-04-24 11:17 22.75376 47.28324 35876 ft 431 kts 274°
2026-04-24 11:18 22.75892 47.21849 35879 ft 431 kts 274°
2026-04-24 11:18 22.76405 47.15379 35877 ft 431 kts 274°
2026-04-24 11:19 22.76920 47.08904 35874 ft 431 kts 274°
2026-04-24 11:19 22.77432 47.02454 35884 ft 432 kts 274°
2026-04-24 11:20 22.77944 46.95964 35837 ft 433 kts 273°
2026-04-24 11:20 22.78452 46.89488 35868 ft 434 kts 273°
2026-04-24 11:21 22.78961 46.82943 35883 ft 436 kts 273°
2026-04-24 11:21 22.79470 46.76374 35894 ft 437 kts 273°
2026-04-24 11:22 22.79974 46.69843 35906 ft 438 kts 273°
2026-04-24 11:22 22.80480 46.63247 35916 ft 438 kts 273°
2026-04-24 11:23 22.80983 46.56659 35919 ft 438 kts 273°
2026-04-24 11:23 22.81482 46.50078 35920 ft 438 kts 273°
2026-04-24 11:24 22.81976 46.43537 35906 ft 437 kts 273°
2026-04-24 11:24 22.82468 46.36973 35899 ft 436 kts 273°
2026-04-24 11:25 22.82954 46.30408 35895 ft 435 kts 273°
2026-04-24 11:25 22.83435 46.23894 35886 ft 435 kts 273°
2026-04-24 11:26 22.83917 46.17338 35881 ft 435 kts 273°
2026-04-24 11:26 22.84394 46.10793 35872 ft 435 kts 273°
2026-04-24 11:27 22.84869 46.04247 35875 ft 435 kts 273°
2026-04-24 11:27 22.85339 45.97732 35867 ft 435 kts 273°
2026-04-24 11:28 22.85809 45.91183 35870 ft 435 kts 273°
2026-04-24 11:28 22.86277 45.84624 35872 ft 436 kts 272°
2026-04-24 11:29 22.86741 45.78076 35871 ft 435 kts 272°
2026-04-24 11:29 22.87203 45.71525 35869 ft 435 kts 272°
2026-04-24 11:30 22.87662 45.64980 35871 ft 435 kts 272°
2026-04-24 11:30 22.88118 45.58431 35870 ft 435 kts 272°
2026-04-24 11:31 22.88570 45.51902 35870 ft 435 kts 272°
2026-04-24 11:31 22.89021 45.45351 35872 ft 435 kts 272°
2026-04-24 11:32 22.89469 45.38800 35877 ft 435 kts 272°
2026-04-24 11:32 22.89916 45.32243 35877 ft 435 kts 272°
2026-04-24 11:33 22.90359 45.25681 35884 ft 435 kts 272°
2026-04-24 11:33 22.90797 45.19163 35879 ft 435 kts 272°
2026-04-24 11:34 22.91235 45.12607 35880 ft 435 kts 272°
2026-04-24 11:34 22.91669 45.06069 35883 ft 434 kts 272°
2026-04-24 11:35 22.92099 44.99530 35883 ft 434 kts 272°
2026-04-24 11:35 22.92524 44.93035 35877 ft 433 kts 272°
2026-04-24 11:36 22.92948 44.86509 35868 ft 433 kts 271°
2026-04-24 11:36 22.93369 44.79980 35875 ft 434 kts 271°
2026-04-24 11:37 22.93789 44.73436 35872 ft 434 kts 271°
2026-04-24 11:37 22.94481 44.66921 35859 ft 437 kts 278°
2026-04-24 11:38 22.96210 44.60552 35859 ft 442 kts 284°
2026-04-24 11:38 22.98172 44.54228 35869 ft 442 kts 284°
2026-04-24 11:39 23.00124 44.47880 35875 ft 443 kts 284°
2026-04-24 11:39 23.02062 44.41578 35880 ft 444 kts 284°
2026-04-24 11:40 23.04028 44.35185 35870 ft 445 kts 284°
2026-04-24 11:40 23.05978 44.28834 35870 ft 446 kts 284°
2026-04-24 11:41 23.07940 44.22433 35883 ft 446 kts 284°
2026-04-24 11:41 23.09897 44.16037 35883 ft 446 kts 284°
2026-04-24 11:42 23.11855 44.09628 35888 ft 446 kts 283°
2026-04-24 11:42 23.13795 44.03267 35881 ft 446 kts 283°
2026-04-24 11:43 23.15749 43.96851 35873 ft 446 kts 283°
2026-04-24 11:43 23.17696 43.90446 35875 ft 446 kts 283°
2026-04-24 11:44 23.19626 43.84089 35883 ft 445 kts 283°
2026-04-24 11:44 23.21564 43.77692 35877 ft 445 kts 283°
2026-04-24 11:45 23.23500 43.71294 35884 ft 444 kts 283°
2026-04-24 11:45 23.25429 43.64907 35883 ft 444 kts 283°
2026-04-24 11:46 23.27340 43.58571 35886 ft 443 kts 283°
2026-04-24 11:46 23.29258 43.52202 35886 ft 442 kts 283°
2026-04-24 11:47 23.31169 43.45846 35883 ft 442 kts 283°
2026-04-24 11:47 23.33074 43.39495 35884 ft 441 kts 283°
2026-04-24 11:48 23.34976 43.33152 35886 ft 440 kts 283°
2026-04-24 11:48 23.36870 43.26820 35881 ft 440 kts 283°
2026-04-24 11:49 23.38749 43.20528 35884 ft 439 kts 283°
2026-04-24 11:49 23.40638 43.14193 35885 ft 439 kts 283°
2026-04-24 11:50 23.42520 43.07861 35895 ft 439 kts 283°
2026-04-24 11:50 23.44392 43.01544 35901 ft 439 kts 283°
2026-04-24 11:51 23.46254 42.95252 35897 ft 438 kts 283°
2026-04-24 11:51 23.48123 42.88930 35897 ft 438 kts 283°
2026-04-24 11:52 23.49986 42.82617 35898 ft 437 kts 283°
2026-04-24 11:52 23.51845 42.76305 35892 ft 437 kts 283°
2026-04-24 11:53 23.53694 42.70024 35887 ft 437 kts 283°
2026-04-24 11:53 23.55557 42.63699 35882 ft 437 kts 283°
2026-04-24 11:54 23.57416 42.57376 35880 ft 438 kts 283°
2026-04-24 11:54 23.59265 42.51071 35877 ft 439 kts 283°
2026-04-24 11:55 23.60817 42.45773 35881 ft 440 kts 283°
2026-04-24 11:55 23.62682 42.39398 35881 ft 442 kts 283°
2026-04-24 11:56 23.64541 42.33031 35885 ft 443 kts 283°
2026-04-24 11:56 23.66422 42.26578 35887 ft 445 kts 283°
2026-04-24 11:57 23.68281 42.20166 35892 ft 446 kts 283°
2026-04-24 11:57 23.70155 42.13691 35899 ft 447 kts 283°
2026-04-24 11:58 23.72015 42.07257 35904 ft 448 kts 283°
2026-04-24 11:58 23.73886 42.00770 35894 ft 448 kts 283°
2026-04-24 11:59 23.75761 41.94274 35899 ft 449 kts 283°
2026-04-24 11:59 23.77643 41.87764 35900 ft 450 kts 283°
2026-04-24 12:00 23.79527 41.81234 35905 ft 451 kts 283°
2026-04-24 12:00 23.81404 41.74714 35922 ft 453 kts 283°
2026-04-24 12:01 23.83291 41.68137 35931 ft 454 kts 283°
2026-04-24 12:01 23.85180 41.61542 35943 ft 455 kts 282°
2026-04-24 12:02 23.87071 41.54932 35967 ft 456 kts 282°
2026-04-24 12:02 23.88951 41.48320 35978 ft 455 kts 282°
2026-04-24 12:03 23.90813 41.41753 35980 ft 454 kts 282°
2026-04-24 12:03 23.92672 41.35189 35973 ft 452 kts 282°
2026-04-24 12:04 23.94531 41.28632 35970 ft 451 kts 282°
2026-04-24 12:04 23.96383 41.22096 35964 ft 449 kts 282°
2026-04-24 12:05 23.98226 41.15579 35957 ft 448 kts 282°
2026-04-24 12:05 24.00059 41.09080 35946 ft 446 kts 282°
2026-04-24 12:06 24.01885 41.02595 35939 ft 445 kts 282°
2026-04-24 12:06 24.03694 40.96162 35930 ft 445 kts 282°
2026-04-24 12:07 24.05513 40.89681 35922 ft 444 kts 282°
2026-04-24 12:07 24.07328 40.83203 35912 ft 444 kts 282°
2026-04-24 12:08 24.09129 40.76764 35905 ft 445 kts 282°
2026-04-24 12:08 24.10938 40.70280 35904 ft 446 kts 282°
2026-04-24 12:09 24.12754 40.63763 35915 ft 447 kts 282°
2026-04-24 12:09 24.14571 40.57231 35917 ft 449 kts 282°
2026-04-24 12:10 24.16594 40.50742 35920 ft 454 kts 288°
2026-04-24 12:11 24.20964 40.41513 35921 ft 458 kts 292°
2026-04-24 12:11 24.23920 40.35336 35913 ft 457 kts 291°
2026-04-24 12:12 24.26874 40.29161 35910 ft 457 kts 291°
2026-04-24 12:12 24.29823 40.22992 35906 ft 456 kts 291°
2026-04-24 12:13 24.32765 40.16832 35899 ft 455 kts 291°
2026-04-24 12:13 24.35683 40.10714 35904 ft 454 kts 291°
2026-04-24 12:14 24.38608 40.04574 35893 ft 453 kts 291°
2026-04-24 12:14 24.41524 39.98442 35903 ft 453 kts 291°
2026-04-24 12:15 24.44418 39.92351 35889 ft 452 kts 290°
2026-04-24 12:15 24.47320 39.86233 35892 ft 451 kts 290°
2026-04-24 12:16 24.50222 39.80107 35890 ft 451 kts 290°
2026-04-24 12:16 24.53202 39.74035 35888 ft 455 kts 295°
2026-04-24 12:17 24.57331 39.68664 35880 ft 472 kts 309°
2026-04-24 12:17 24.62637 39.64256 35880 ft 480 kts 315°
2026-04-24 12:18 24.68048 39.59938 35881 ft 480 kts 315°
2026-04-24 12:18 24.73419 39.55638 35889 ft 480 kts 315°
2026-04-24 12:19 24.78822 39.51314 35902 ft 480 kts 315°
2026-04-24 12:19 24.84238 39.46977 35923 ft 480 kts 315°
2026-04-24 12:20 24.89644 39.42644 35915 ft 480 kts 314°
2026-04-24 12:20 24.95010 39.38338 35916 ft 480 kts 314°
2026-04-24 12:21 25.00412 39.33996 35917 ft 481 kts 314°
2026-04-24 12:21 25.05829 39.29640 35915 ft 481 kts 314°
2026-04-24 12:22 25.11206 39.25311 35913 ft 480 kts 314°
2026-04-24 12:22 25.16604 39.20959 35906 ft 480 kts 314°
2026-04-24 12:23 25.21639 39.16265 35889 ft 466 kts 304°
2026-04-24 12:23 25.25555 39.10753 35886 ft 452 kts 294°
2026-04-24 12:24 25.28950 39.04909 35883 ft 452 kts 294°
2026-04-24 12:24 25.32380 38.99073 35873 ft 451 kts 294°
2026-04-24 12:25 25.35791 38.93245 35875 ft 451 kts 294°
2026-04-24 12:25 25.39168 38.87458 35870 ft 450 kts 294°
2026-04-24 12:26 25.42558 38.81640 35865 ft 449 kts 294°
2026-04-24 12:26 25.45945 38.75820 35856 ft 448 kts 294°
2026-04-24 12:27 25.49296 38.70055 35846 ft 448 kts 294°
2026-04-24 12:27 25.52662 38.64258 35834 ft 447 kts 294°
2026-04-24 12:28 25.56020 38.58464 35829 ft 447 kts 294°
2026-04-24 12:28 25.59376 38.52667 35827 ft 447 kts 294°
2026-04-24 12:29 25.62733 38.46862 35819 ft 447 kts 294°
2026-04-24 12:29 25.66069 38.41087 35817 ft 448 kts 294°
2026-04-24 12:30 25.69435 38.35253 35826 ft 448 kts 294°
2026-04-24 12:30 25.72798 38.29418 35829 ft 449 kts 294°
2026-04-24 12:31 25.76165 38.23568 35839 ft 449 kts 294°
2026-04-24 12:31 25.79502 38.17763 35822 ft 449 kts 294°
2026-04-24 12:32 25.82862 38.11912 35819 ft 448 kts 294°
2026-04-24 12:32 25.86217 38.06060 35829 ft 450 kts 294°
2026-04-24 12:33 25.89560 38.00220 35837 ft 451 kts 294°
2026-04-24 12:33 25.92931 37.94326 35849 ft 451 kts 294°
2026-04-24 12:34 25.96309 37.88415 35856 ft 452 kts 294°
2026-04-24 12:34 25.99309 37.82357 35853 ft 442 kts 286°
2026-04-24 12:35 26.01685 37.76112 35860 ft 442 kts 285°
2026-04-24 12:35 26.04137 37.69805 36511 ft 442 kts 286°
2026-04-24 12:35 26.05377 37.66686 37166 ft 437 kts 286°
2026-04-24 12:36 26.06603 37.63611 37715 ft 434 kts 286°
2026-04-24 12:36 26.07828 37.60528 37846 ft 433 kts 286°
2026-04-24 12:36 26.09043 37.57483 37852 ft 428 kts 286°
2026-04-24 12:37 26.11453 37.51411 37849 ft 430 kts 286°
2026-04-24 12:37 26.13874 37.45301 37848 ft 431 kts 286°
2026-04-24 12:38 26.16284 37.39215 37845 ft 434 kts 286°
2026-04-24 12:38 26.18725 37.33045 37871 ft 436 kts 286°
2026-04-24 12:39 26.23585 37.20734 37829 ft 433 kts 286°
2026-04-24 12:40 26.25990 37.14627 37825 ft 432 kts 286°
2026-04-24 12:40 26.28399 37.08501 37808 ft 431 kts 286°
2026-04-24 12:41 26.30804 37.02374 37792 ft 430 kts 286°
2026-04-24 12:41 26.33186 36.96297 37789 ft 429 kts 286°
2026-04-24 12:42 26.35577 36.90189 37773 ft 429 kts 286°
2026-04-24 12:42 26.37946 36.84127 37765 ft 428 kts 286°
2026-04-24 12:43 26.40328 36.78024 37767 ft 429 kts 286°
2026-04-24 12:43 26.42712 36.71904 37768 ft 430 kts 286°
2026-04-24 12:44 26.45098 36.65772 37775 ft 431 kts 286°
2026-04-24 12:44 26.47473 36.59657 37787 ft 433 kts 286°
2026-04-24 12:45 26.49874 36.53468 37796 ft 434 kts 286°
2026-04-24 12:45 26.52275 36.47269 37806 ft 435 kts 286°
2026-04-24 12:46 26.54678 36.41056 37807 ft 436 kts 286°
2026-04-24 12:46 26.57069 36.34867 37813 ft 436 kts 286°
2026-04-24 12:47 26.59474 36.28629 37813 ft 436 kts 286°
2026-04-24 12:47 26.61468 36.23450 37813 ft 436 kts 286°
2026-04-24 12:48 26.64248 36.16221 37796 ft 435 kts 286°
2026-04-24 12:48 26.66230 36.11055 37794 ft 434 kts 286°
2026-04-24 12:49 26.68607 36.04853 37780 ft 434 kts 286°
2026-04-24 12:49 26.70986 35.98636 37780 ft 433 kts 286°
2026-04-24 12:50 26.73356 35.92432 37778 ft 433 kts 286°